Location: Hartford
(41.7640°N, 72.6860°W)
Time: 09:06:05
(UTC-04:00)

ISS - Visible Passes

Search period start: 30 July 2016 00:00
Search period end: 09 August 2016 00:00
Orbit: 401 x 404 km, 51.6° (Epoch: 30 July)

Date Brightness Start Highest point End Pass type
(mag) Time Alt. Az. Time Alt. Az. Time Alt. Az.
30 Jul -1.7 21:11:57 10° W 21:15:01 38° NNW 21:18:06 10° NE visible
30 Jul -0.2 22:50:04 10° NW 22:52:08 15° N 22:54:11 10° NNE visible
31 Jul 0.0 00:27:13 10° NNW 00:27:59 13° NNW 00:27:59 13° NNW visible
31 Jul -0.5 21:56:33 10° WNW 21:58:55 18° NNW 22:01:17 10° NNE visible
31 Jul -0.4 23:34:16 10° NNW 23:36:17 15° N 23:36:41 15° NNE visible
01 Aug -0.8 21:03:03 10° WNW 21:05:45 23° NNW 21:08:27 10° NE visible
01 Aug -0.3 22:41:09 10° NW 22:43:03 14° N 22:44:57 10° NE visible
02 Aug 0.0 00:17:36 10° NW 00:17:57 12° NNW 00:17:57 12° NNW visible
02 Aug -0.4 21:47:48 10° NW 21:49:48 15° N 21:51:48 10° NNE visible
02 Aug -0.6 23:24:46 10° NNW 23:26:41 18° N 23:26:41 18° N visible
03 Aug -0.5 20:54:18 10° WNW 20:56:34 17° NNW 20:58:50 10° NNE visible
03 Aug -0.6 22:31:51 10° NNW 22:33:57 16° N 22:35:25 12° NE visible
04 Aug 0.1 00:07:56 10° NW 00:08:01 10° NW 00:08:01 10° NW visible
04 Aug -0.5 21:38:47 10° NW 21:40:42 14° N 21:42:37 10° NE visible
04 Aug -0.7 23:15:08 10° NW 23:16:46 21° NNW 23:16:46 21° NNW visible
05 Aug -0.5 20:45:29 10° NW 20:47:26 15° N 20:49:24 10° NNE visible
05 Aug -1.1 22:22:18 10° NNW 22:24:47 20° NNE 22:25:32 18° NE visible
06 Aug -0.7 21:29:25 10° NNW 21:31:35 16° N 21:33:44 10° NE visible
06 Aug -0.8 23:05:28 10° NW 23:06:55 23° NNW 23:06:55 23° NNW visible
07 Aug -0.6 20:36:24 10° NNW 20:38:20 15° N 20:40:16 10° NE visible
07 Aug -1.8 22:12:38 10° NW 22:15:33 29° NNE 22:15:44 29° NNE visible
08 Aug -1.2 21:19:49 10° NW 21:22:23 21° NNE 21:24:35 12° ENE visible
08 Aug -0.9 22:55:53 10° NW 22:57:11 22° WNW 22:57:11 22° WNW visible
